SCP
0 0 0 0 0 0 0 0 0 0 0 0 0 0 0 0 0 0 0 0 0 0 0 1 1 1 1 1 1 1 1 1 1 1 0 0 0 1 0 0 1 0 0
0 0 0 0 0 0 0 0 0 0 0 0 0 0 0 0 0 0 0 0 0 0 0 1 1 1 1 1 1 1 1 1 0 0 0 1 1 1 1 1 1 1 1
0 0 0 0 0 0 0 0 0 0 0 0 0 0 0 0 0 0 0 0 0 0 0 0 1 1 1 1 1 1 1 1 0 1 1 1 1 1 1 1 1 1 1
0 0 0 0 0 0 0 0 0 0 0 0 0 0 0 0 0 0 0 0 0 0 0 0 0 0 1 1 1 1 1 1 1 1 1 1 1 1 1 1 1 1 1
0 0 0 0 0 0 0 0 0 0 0 0 0 0 0 0 0 0 0 0 0 0 0 0 0 0 0 1 1 1 1 1 1 1 1 1 1 1 1 1 1 1 1
0 0 0 0 0 0 0 0 0 0 0 0 0 0 0 0 0 0 0 0 0 0 0 0 0 0 0 0 1 1 1 1 1 1 1 1 1 1 1 1 1 1 1
0 0 0 0 0 0 0 0 0 0 0 0 0 0 0 0 0 0 0 0 0 0 0 0 0 0 0 0 0 1 1 1 1 1 1 1 1 1 1 1 1 1 1
0 0 0 0 0 0 0 0 0 0 0 0 0 0 0 0 0 0 0 0 0 0 0 0 0 0 0 0 0 1 1 1 1 1 1 1 1 0 0 1 1 1 1
0 0 0 0 0 0 0 0 0 0 0 0 0 0 0 0 0 0 0 0 0 0 0 0 0 0 0 0 0 0 1 1 1 1 1 1 1 1 1 1 1 1 1
0 0 0 0 0 0 0 0 0 0 0 0 0 0 0 0 0 0 0 0 0 0 0 0 0 0 0 0 0 0 0 1 1 1 1 1 1 1 1 1 1 1 1
0 0 0 0 0 0 0 0 0 0 0 0 0 0 0 0 0 0 0 0 0 0 0 0 0 0 0 0 0 0 0 0 0 1 1 1 1 1 1 1 1 1 1
0 0 0 0 0 0 0 0 0 0 0 0 0 0 0 0 0 0 0 0 0 0 0 0 0 0 0 0 0 0 0 0 0 0 0 0 0 0 0 1 1 1 1
0 0 0 0 0 0 0 0 0 0 0 0 0 0 0 0 0 0 0 0 0 0 0 0 0 0 0 0 0 0 0 0 0 0 0 0 0 0 0 0 0 1 1
0 0 1 1 1 0 0 0 0 0 0 0 0 0 0 0 0 0 0 0 0 0 0 0 0 0 0 0 0 0 0 0 0 0 0 0 0 0 0 0 0 0 0
0 0 0 0 0 0 0 0 0 0 0 0 0 0 0 0 0 0 0 0 0 0 0 0 0 0 0 0 0 0 0 0 0 0 0 0 0 0 0 0 0 0 0
0 0 0 0 0 0 0 0 0 0 0 0 0 0 0 0 0 0 0 0 0 0 0 0 0 0 0 0 0 0 0 0 0 0 0 0 0 0 0 0 0 0 0
0 0 0 0 0 0 0 0 0 0 0 0 0 0 0 0 0 0 0 0 0 0 0 0 0 0 0 0 0 0 0 0 0 0 0 0 0 0 0 0 0 0 0
0 0 0 0 0 0 0 0 0 0 0 0 0 0 0 0 0 0 1 0 0 0 0 0 0 0 0 0 0 0 0 0 0 0 0 0 0 0 0 0 0 0 0
0 0 0 0 0 0 0 0 0 0 0 0 0 0 0 0 0 0 1 1 0 0 0 0 0 0 0 0 0 0 0 0 0 0 0 0 0 0 0 0 0 0 0
0 0 0 0 0 0 0 0 0 0 0 0 0 0 0 0 0 0 0 0 0 0 0 0 0 0 0 0 0 0 0 0 0 0 0 0 0 0 0 0 0 0 0
0 0 0 0 0 0 0 0 0 0 0 0 0 0 0 0 0 0 0 0 0 0 0 0 0 0 0 0 0 0 0 0 0 0 0 0 0 0 0 0 0 0 0
0 0 0 0 0 0 0 0 0 0 0 0 0 0 0 0 0 0 0 0 0 0 0 0 0 0 0 0 0 0 0 0 0 0 0 0 0 0 0 0 0 0 0
0 0 0 0 0 0 0 0 0 0 0 0 0 0 0 0 0 0 0 0 0 0 0 0 0 0 0 0 0 0 0 0 0 0 0 0 0 0 0 0 0 0 0
0 0 0 0 0 0 0 0 0 0 0 0 0 0 0 0 0 0 0 0 0 0 0 0 0 0 0 0 0 0 0 0 0 0 0 0 0 0 0 0 0 0 0
0 0 0 0 0 0 0 0 0 0 0 0 0 0 0 0 0 0 0 0 0 0 0 0 0 0 0 0 0 0 0 0 0 0 0 0 0 0 0 0 0 0 0
0 0 0 0 0 0 0 0 0 0 0 0 0 0 0 0 0 0 0 0 0 0 0 0 0 0 0 0 0 0 0 0 0 0 0 0 0 0 0 0 0 0 0
Wind_Speed
2 2 2 2 3 3 3 3 2 3 3 2 2 3 3 3 3 3 2 5 7 8 8 8 8 8 9 9 8 7 7 7 7 7 7 8 8 8 9 9 9 9 10
2 2 2 2 3 3 3 3 3 3 2 2 2 3 3 3 3 3 3 2 4 7 8 9 9 9 9 9 10 9 8 8 8 8 8 8 8 9 10 10 10 11 11
3 3 2 3 3 3 3 3 3 3 2 2 2 3 3 3 3 3 3 3 2 4 6 8 9 10 10 9 10 10 9 9 9 9 9 9 9 9 10 11 11 11 12
4 2 2 3 4 3 3 3 3 3 3 2 2 3 2 2 2 2 2 2 3 3 3 6 8 9 9 10 10 10 10 10 9 9 10 10 10 10 11 11 12 12 12
4 3 2 3 3 3 3 3 3 3 3 3 3 3 2 2 2 2 2 2 3 3 3 4 6 7 9 10 11 11 11 10 10 10 10 10 11 11 11 11 12 12 12
4 3 3 4 3 3 3 3 4 4 4 4 3 3 2 2 2 2 2 2 2 3 4 4 4 4 7 9 11 11 11 11 11 11 11 11 12 12 12 12 12 12 13
4 3 3 3 3 3 3 4 4 4 4 4 3 3 3 2 2 2 2 2 2 3 4 4 4 4 4 7 9 11 12 12 12 12 12 13 13 13 13 13 13 13 13
4 3 4 3 4 3 4 4 4 3 3 3 3 3 3 3 1 2 2 2 3 3 3 4 4 4 5 4 6 11 12 13 13 13 13 14 14 14 14 15 15 14 14
3 3 4 3 4 3 3 4 4 3 3 3 3 3 3 3 4 2 2 2 3 3 3 3 4 5 5 4 5 8 12 14 14 15 15 14 15 15 15 16 16 16 15
3 3 3 3 3 3 4 4 4 4 3 3 2 2 3 4 4 4 2 2 4 4 4 4 4 4 5 5 6 9 12 13 14 15 15 15 15 15 16 16 17 17 16
3 4 3 3 3 3 3 4 4 4 3 3 3 3 3 3 4 5 5 5 4 3 4 5 4 4 5 5 5 9 12 13 14 14 15 15 15 16 16 17 17 18 18
3 4 4 3 3 3 4 4 3 4 3 3 3 3 3 3 3 4 6 6 6 4 5 4 4 4 4 5 6 10 12 13 13 14 14 15 15 15 16 17 18 18 18
3 4 4 4 3 4 4 4 3 3 3 3 3 3 3 3 4 5 5 6 7 5 4 3 3 4 4 5 6 11 11 12 14 14 14 15 15 15 16 16 17 18 18
3 4 3 3 4 4 4 4 3 3 3 3 3 4 3 3 3 4 5 5 7 6 5 5 3 3 5 6 8 12 9 12 14 15 15 15 15 15 16 17 17 18 18
3 3 3 3 4 4 3 3 2 3 3 3 3 4 4 3 4 4 4 4 5 7 7 5 4 4 5 6 9 8 9 12 14 15 15 15 16 16 16 17 17 18 19
3 3 3 4 4 3 3 3 3 3 3 4 4 4 4 4 4 3 3 4 4 6 7 6 6 7 7 7 9 9 9 13 13 14 15 16 16 17 17 17 18 18 19
3 3 3 4 4 4 3 3 3 3 3 4 4 4 4 5 4 4 4 4 4 5 7 7 7 7 9 9 9 9 9 9 8 12 15 16 17 17 17 18 18 19 19
2 2 3 3 3 4 4 3 4 4 4 4 4 4 5 4 5 5 4 5 5 5 7 9 8 7 9 9 10 10 9 8 9 12 16 17 16 16 17 18 18 18 18
2 2 3 3 3 3 3 3 4 4 4 4 4 5 5 5 6 5 6 5 5 6 6 7 8 7 7 8 10 9 10 9 9 10 14 14 15 17 18 17 17 17 17
2 2 2 2 3 3 3 3 4 4 4 4 4 5 5 5 6 7 6 6 6 7 6 6 7 7 7 8 8 8 9 8 9 9 10 12 14 16 16 17 16 17 17
2 2 2 2 3 3 3 4 3 4 4 4 4 5 5 6 7 7 6 7 7 6 6 6 7 7 7 8 8 8 10 10 10 7 9 9 10 9 10 12 14 16 18
2 2 2 3 3 3 5 5 4 4 4 4 4 5 5 5 6 8 9 9 9 7 8 7 7 8 9 9 9 9 10 10 9 7 10 11 9 9 9 8 14 18 18
2 2 2 3 3 3 5 5 5 4 4 4 4 5 4 5 6 6 8 9 8 9 10 9 9 9 10 10 10 11 10 10 11 10 10 11 9 10 9 10 17 18 18
2 2 2 3 3 3 5 5 5 4 3 4 4 5 5 6 6 8 8 8 8 8 8 7 8 9 9 10 9 10 11 11 11 8 8 9 9 10 10 9 14 16 17
2 2 2 2 3 4 5 6 6 3 3 4 4 4 5 6 9 11 8 8 8 8 8 10 12 12 14 13 11 7 8 8 10 8 5 7 9 11 10 8 9 15 17
2 2 2 2 3 4 5 6 6 3 3 4 4 4 5 7 10 11 8 7 8 9 9 9 9 10 9 9 10 7 7 8 8 8 5 6 8 8 9 6 7 8 10
Wind_Direction
6 10 9 2 355 348 341 335 334 335 334 341 340 337 336 336 332 328 352 23 5 357 352 351 350 349 346 344 341 336 336 336 337 334 332 328 327 326 325 323 320 317 315
11 5 5 0 353 344 336 331 332 326 324 330 330 330 323 322 326 323 325 3 19 5 359 355 351 347 343 344 342 338 337 336 337 337 333 329 326 324 322 319 316 313 311
15 11 5 358 349 338 333 330 333 324 321 323 324 324 320 319 321 320 323 330 340 10 6 357 353 349 345 344 344 342 339 337 333 334 334 331 328 324 321 319 317 314 312
16 13 8 360 347 338 336 333 330 325 318 316 317 317 313 313 310 314 321 329 328 333 355 359 350 346 343 341 340 338 339 337 336 335 334 330 323 319 316 314 313 312 310
12 5 360 355 346 345 344 338 331 321 315 315 311 312 312 306 308 315 313 320 325 330 328 347 347 347 344 341 340 340 341 342 342 341 335 333 328 323 320 317 314 314 314
10 360 357 354 350 344 344 339 331 328 314 311 302 297 294 291 298 306 308 316 324 326 327 329 327 334 341 339 339 340 341 342 341 338 337 335 332 325 319 317 315 314 314
10 4 359 352 349 345 340 334 327 330 334 327 299 294 277 264 274 302 313 315 321 328 330 332 330 329 329 339 344 342 341 340 338 335 334 332 329 326 324 316 314 312 312
8 4 0 352 347 338 344 343 334 317 327 340 314 298 289 258 247 304 307 313 322 325 327 334 334 333 331 329 341 342 339 336 335 334 332 329 326 325 323 323 316 313 311
7 6 354 349 343 339 338 339 333 320 314 325 333 313 305 306 315 281 307 315 327 323 319 319 324 326 328 328 329 336 336 333 332 331 330 328 325 324 324 322 320 314 310
3 1 354 348 343 342 341 338 337 326 318 313 318 312 300 306 299 302 296 317 321 313 315 317 321 325 327 325 327 335 336 332 330 328 328 327 324 324 322 320 318 317 313
7 2 357 352 348 343 344 341 336 333 330 320 314 309 303 295 290 285 293 305 308 307 311 310 313 317 324 325 325 337 334 330 329 326 325 325 324 324 322 319 318 316 316
2 4 357 354 349 344 342 336 334 333 330 325 318 317 313 309 304 291 287 299 301 304 305 303 310 320 327 327 329 335 329 326 325 323 322 321 320 320 319 318 317 316 316
348 352 355 352 350 347 342 340 337 336 335 329 323 318 313 308 311 300 293 296 295 297 290 288 313 322 328 325 323 331 320 322 321 319 318 318 316 315 315 315 314 314 314
335 344 348 347 344 342 337 336 335 337 337 335 331 324 318 314 311 306 300 298 296 291 282 294 316 321 326 324 323 323 314 319 318 316 316 316 313 312 312 312 311 312 312
336 345 344 340 339 338 335 334 339 338 334 332 327 321 313 313 311 307 308 303 296 297 296 310 317 320 322 318 319 316 312 317 315 313 313 313 311 309 309 310 310 311 310
340 339 342 343 337 338 343 343 337 334 333 332 328 328 326 321 317 314 310 304 293 286 287 303 309 312 316 312 315 312 309 312 308 310 310 310 310 309 308 308 309 309 308
346 350 353 351 344 342 348 344 341 340 338 335 332 327 326 325 317 318 311 305 304 298 288 298 304 311 311 312 313 313 311 310 308 310 312 310 307 307 308 308 308 307 306
348 347 352 354 345 347 348 342 341 339 335 336 335 333 332 331 330 325 318 314 310 310 301 298 303 309 308 312 313 312 312 310 307 308 310 309 306 308 308 307 306 306 306
335 346 352 351 343 341 342 343 337 335 338 338 336 334 334 333 331 328 323 320 318 315 308 299 300 305 308 314 315 311 311 309 309 307 307 307 309 309 309 307 306 306 305
322 342 343 340 334 331 334 336 337 338 336 336 337 336 334 333 329 326 322 321 319 315 310 305 305 309 312 318 315 317 316 315 312 310 307 310 308 307 306 307 306 306 304
319 330 329 331 331 329 331 332 334 333 331 333 337 337 337 338 336 330 324 325 323 317 314 313 311 311 315 322 321 320 313 315 310 309 314 311 308 305 307 306 306 307 306
320 325 324 329 328 329 336 332 334 332 328 327 329 331 333 336 339 331 327 324 321 315 313 311 310 310 313 317 317 314 313 315 313 324 319 310 308 302 304 304 307 309 309
307 311 317 318 318 330 340 338 343 333 327 325 324 323 329 335 332 330 328 324 322 317 309 305 304 306 308 313 312 309 309 308 303 310 310 302 307 302 305 303 305 306 310
287 293 305 310 318 332 339 340 342 329 321 324 323 323 325 328 332 329 325 324 323 322 319 314 306 306 308 309 305 302 305 302 297 297 306 297 305 306 309 302 301 305 310
284 292 304 312 316 324 333 331 334 324 321 322 323 324 326 324 329 330 326 321 319 318 323 317 311 308 308 313 315 310 307 306 306 309 317 301 306 311 303 297 304 310 312
287 307 309 311 312 317 329 329 331 318 316 319 323 327 330 324 328 331 326 321 318 320 322 320 316 314 313 316 320 312 304 302 305 304 320 312 307 319 308 299 309 312 314